[[{"header":{"parameterUnit":"m.s-1","parameterCategory":1,"la1":30.2991,"la2":30.254,"lo1":-89.0895,"lo2":-89.0444,"dy":0.0017,"dx":0.0017,"nx":28,"ny":28,"refTime":"2024-10-21T03:00:00:Z","depth":0,"parameterNumber":2,"parameterNumberName":"U-component_of_WINDS"},"data":[0,0,0,0,0,0,0,0,0,0,0,0,0,0,0,0,0,0,0,0,0,0,0,0,0,0,0,0,0,0,0,0,0,0,0,0,0,0,0,0,0,0,0,0,0,0,0,0,0,0,0,0,0,0,0,0,0,0,-3.2078,-3.2078,0,-3.2013,-3.2013,-3.2012,-3.1934,-3.1932,-3.1931,-3.193,-3.1865,-3.1865,-3.1864,0,0,0,0,0,0,0,0,0,0,0,0,0,-3.2138,-3.2137,-3.2078,-3.2078,-3.2077,-3.2013,-3.2013,-3.2012,-3.1934,-3.1932,-3.1931,-3.193,-3.1865,-3.1865,-3.1864,0,0,0,0,0,0,0,0,0,0,0,0,0,-3.2097,-3.2137,-3.2079,-3.203,-3.2025,-3.2014,-3.2013,-3.2011,-3.1934,-3.1932,-3.1931,-3.1929,-3.1866,-3.1865,-3.1864,-3.1895,0,0,-3.1861,-3.1861,0,0,0,0,0,0,0,0,-3.2099,-3.2094,-3.2038,-3.2034,-3.2028,-3.198,-3.201,-3.1972,-3.1935,-3.1969,-3.193,-3.1928,-3.1905,-3.1901,-3.1892,-3.1892,-3.1889,-3.1861,-3.186,-3.186,-3.186,0,0,0,0,0,0,0,-3.2102,-3.2097,-3.2053,-3.2037,-3.2031,-3.2013,-3.2005,-3.2002,-3.1948,-3.1966,-3.196,-3.1953,-3.1902,-3.1894,-3.189,-3.1888,-3.1861,-3.186,-3.186,-3.1859,-3.1912,-3.1914,0,0,0,0,0,0,-3.2112,-3.21,-3.2055,-3.2051,-3.206,-3.2013,-3.2004,-3.1997,-3.1948,-3.1938,-3.1955,-3.195,-3.1896,-3.1892,-3.1888,-3.1923,-3.186,-3.1859,-3.1859,-3.191,-3.1913,-3.1915,0,0,0,0,0,0,-3.2113,-3.2108,-3.2057,-3.2074,-3.2066,-3.2014,-3.2007,-3.1997,-3.1988,-3.1939,-3.193,-3.1956,-3.1894,-3.1889,-3.1894,-3.1919,-3.1859,-3.1858,-3.1908,-3.1911,-3.1914,-3.1992,0,0,0,0,0,0,-3.2115,-3.2109,-3.212,-3.2074,-3.2065,-3.2064,-3.2008,-3.1997,-3.1987,-3.198,-3.1938,-3.193,-3.1893,-3.1896,-3.1893,-3.1917,-3.1857,-3.1906,-3.191,-3.1913,-3.1987,-3.1997,-3.2006,0,0,0,0,0,-3.2118,-3.2144,-3.2121,-3.2116,-3.2077,-3.2066,-3.206,-3.2017,-3.1989,-3.2,-3.1969,-3.1931,-3.1917,-3.1897,-3.1893,-3.1917,-3.1904,-3.1908,-3.1913,-3.1983,-3.1995,-3.2006,0,0,0,0,0,0,-3.2194,-3.2137,-3.2111,-3.2123,-3.21,-3.2052,-3.2064,-3.2031,-3.2015,-3.2009,-3.1956,-3.1948,-3.196,-3.1939,-3.1918,-3.1946,-3.1905,-3.1909,-3.1959,-3.1971,-3.198,-3.1986,-3.1857,0,0,0,0,0,-3.2212,-3.2207,-3.2158,-3.2173,-3.2163,-3.2116,-3.211,-3.2078,-3.2052,-3.2042,-3.2011,-3.1988,-3.1979,-3.1973,-3.1962,-3.1983,-3.1974,-3.1998,-3.2008,-3.2016,-3.202,-3.2033,-3.2043,-3.1929,-3.1929,-3.1929,0,0,-3.2249,-3.2218,-3.2218,-3.2188,-3.2166,-3.2164,-3.2108,-3.2107,-3.2105,-3.2042,-3.2045,-3.2022,-3.1993,-3.2007,-3.2012,-3.199,-3.205,-3.2021,-3.2028,-3.2028,-3.2038,-3.2049,-3.2059,-3.1932,-3.1932,-3.1931,0,0,-3.2316,-3.2291,-3.2303,-3.2283,-3.2251,-3.2219,-3.2223,-3.2181,-3.2163,-3.2166,-3.2119,-3.2116,-3.21,-3.2082,-3.2071,-3.2134,-3.21,-3.2132,-3.2182,-3.2195,-3.2204,-3.2212,-3.2236,-3.2246,-3.2136,-3.2136,-3.2136,0,-3.2367,-3.236,-3.2313,-3.2315,-3.2305,-3.2248,-3.226,-3.2243,-3.2209,-3.2204,-3.2179,-3.216,-3.2136,-3.2147,-3.2162,-3.2154,-3.2158,-3.2137,-3.2206,-3.2214,-3.222,-3.2243,-3.2252,-3.2141,-3.214,-3.214,-3.2139,0,-3.2425,-3.2422,-3.2435,-3.2404,-3.2395,-3.2402,-3.2357,-3.2354,-3.2324,-3.2296,-3.2301,-3.227,-3.2253,-3.2253,-3.2223,-3.226,-3.2248,-3.2216,-3.2174,-3.2236,-3.2257,-3.2265,-3.2147,-3.2145,-3.2144,-3.2143,0,0,-3.2538,-3.2482,-3.2488,-3.2475,-3.2436,-3.2433,-3.2439,-3.2422,-3.2421,-3.24,-3.2405,-3.2394,-3.2365,-3.2352,-3.232,-3.2331,-3.2386,-3.2298,-3.2297,-3.2317,-3.2428,-3.2454,-3.2465,-3.2363,-3.2364,-3.2365,-3.2431,0,-3.2599,-3.2605,-3.2564,-3.2582,-3.2579,-3.2526,-3.2531,-3.251,-3.2484,-3.2479,-3.2451,-3.2445,-3.2406,-3.2398,-3.2407,-3.2378,-3.2408,-3.2372,-3.2369,-3.2369,-3.2379,-3.2475,-3.2501,-3.2565,-3.2439,-3.244,-3.2441,0,-3.2671,-3.2655,-3.2673,-3.2636,-3.2634,-3.2639,-3.2621,-3.2616,-3.2591,-3.2572,-3.256,-3.2523,-3.2528,-3.2488,-3.2495,-3.2472,-3.2468,-3.2454,-3.2455,-3.2454,-3.241,-3.2479,-3.2584,-3.2595,-3.2453,-3.2452,-3.2451,0,-3.2754,-3.2737,-3.2746,-3.2736,-3.2692,-3.2698,-3.268,-3.2653,-3.2647,-3.2631,-3.2627,-3.2613,-3.2605,-3.2596,-3.2558,-3.2531,-3.2571,-3.2526,-3.2557,-3.2558,-3.2568,-3.2568,-3.2676,-3.2563,-3.2563,-3.2563,-3.2562,0,-3.2827,-3.2841,-3.2783,-3.2789,-3.2803,-3.2756,-3.2772,-3.2749,-3.2726,-3.2728,-3.2681,-3.2684,-3.2632,-3.263,-3.26,-3.2612,-3.2608,-3.2594,-3.2586,-3.2599,-3.2602,-3.2597,-3.2592,-3.2565,-3.2565,-3.2564,-3.2564,0,-3.2922,-3.2884,-3.289,-3.285,-3.284,-3.2853,-3.2818,-3.2823,-3.2795,-3.2798,-3.2796,-3.2753,-3.2748,-3.2708,-3.2694,-3.2674,-3.2699,-3.2681,-3.2707,-3.2702,-3.2736,-3.2734,-3.2846,-3.286,-3.2736,-3.2738,-3.2739,0,-3.2973,-3.2982,-3.2943,-3.2941,-3.2925,-3.2922,-3.2915,-3.287,-3.2865,-3.2839,-3.2848,-3.2839,-3.2829,-3.2824,-3.2792,-3.2782,-3.2766,-3.2806,-3.2764,-3.2778,-3.2769,-3.277,-3.2772,-3.2815,-3.2817,-3.2818,-3.2819,0,-3.3067,-3.3048,-3.3039,-3.3026,-3.3019,-3.3006,-3.299,-3.2991,-3.2942,-3.2939,-3.2934,-3.2927,-3.2913,-3.2906,-3.2891,-3.2874,-3.2839,-3.2832,-3.2839,-3.2853,-3.2869,-3.2863,-3.2734,-3.283,-3.2829,-3.2828,-3.2827,-3.2827,-3.3142,-3.3149,-3.3123,-3.3117,-3.31,-3.3087,-3.309,-3.3064,-3.3058,-3.3044,-3.3017,-3.3017,-3.2994,-3.2969,-3.2956,-3.2955,-3.2935,-3.2944,-3.2947,-3.295,-3.2958,-3.2868,-3.2952,-3.2952,-3.2951,-3.2951,-3.2951,0,-3.3235,-3.3217,-3.3211,-3.3191,-3.3187,-3.3154,-3.3135,-3.3134,-3.3134,-3.3115,-3.3108,-3.3103,-3.3096,-3.3065,-3.3055,-3.3061,-3.3046,-3.3061,-3.3061,-3.3058,-3.2976,-3.2972,-3.3074,-3.3074,-3.3074,-3.3074,-3.3074,-3.3074,-3.3284,-3.3295,-3.3273,-3.3277,-3.3258,-3.3256,-3.3249,-3.3238,-3.3223,-3.322,-3.3214,-3.3193,-3.317,-3.3159,-3.3153,-3.3144,-3.3143,-3.3164,-3.3151,-3.3075,-3.3063,-3.3052,-3.3048,-3.3164,-3.3164,-3.3232,-3.3233,-3.3233]},{"header":{"parameterUnit":"m.s-1","parameterCategory":1,"la1":30.2991,"la2":30.254,"lo1":-89.0895,"lo2":-89.0444,"dy":0.0017,"dx":0.0017,"nx":28,"ny":28,"refTime":"2024-10-21T03:00:00:Z","depth":0,"parameterNumber":3,"parameterNumberName":"V-component_of_WINDS"},"data":[0,0,0,0,0,0,0,0,0,0,0,0,0,0,0,0,0,0,0,0,0,0,0,0,0,0,0,0,0,0,0,0,0,0,0,0,0,0,0,0,0,0,0,0,0,0,0,0,0,0,0,0,0,0,0,0,0,0,-0.3687,-0.3687,0,-0.3714,-0.3714,-0.3714,-0.3682,-0.368,-0.3679,-0.3678,-0.3707,-0.3709,-0.3711,0,0,0,0,0,0,0,0,0,0,0,0,0,-0.3609,-0.3611,-0.3687,-0.3687,-0.3688,-0.3714,-0.3714,-0.3714,-0.3682,-0.368,-0.3679,-0.3678,-0.3706,-0.3709,-0.3711,0,0,0,0,0,0,0,0,0,0,0,0,0,-0.364,-0.3611,-0.3687,-0.3674,-0.3674,-0.3714,-0.3714,-0.3714,-0.3682,-0.368,-0.3679,-0.3677,-0.3706,-0.3708,-0.3711,-0.3765,0,0,-0.372,-0.3721,0,0,0,0,0,0,0,0,-0.3638,-0.3643,-0.3676,-0.3675,-0.3675,-0.3692,-0.3697,-0.3732,-0.3683,-0.3679,-0.3678,-0.3676,-0.3704,-0.3707,-0.3716,-0.3766,-0.3768,-0.372,-0.3722,-0.3723,-0.3724,0,0,0,0,0,0,0,-0.3636,-0.3642,-0.3698,-0.3676,-0.3676,-0.3668,-0.367,-0.3703,-0.3701,-0.3679,-0.3677,-0.368,-0.3703,-0.3713,-0.3716,-0.3768,-0.372,-0.3723,-0.3724,-0.3726,-0.3866,-0.3868,0,0,0,0,0,0,-0.3635,-0.364,-0.3697,-0.3698,-0.3652,-0.3671,-0.3674,-0.3689,-0.3701,-0.3701,-0.3682,-0.3679,-0.3709,-0.3713,-0.3717,-0.3782,-0.3723,-0.3726,-0.3727,-0.3864,-0.3866,-0.3868,0,0,0,0,0,0,-0.3634,-0.3641,-0.3696,-0.3669,-0.3675,-0.3674,-0.3691,-0.369,-0.37,-0.3703,-0.3702,-0.3693,-0.3708,-0.3713,-0.3754,-0.3783,-0.3727,-0.373,-0.3861,-0.3864,-0.3867,-0.3913,0,0,0,0,0,0,-0.3632,-0.364,-0.3661,-0.3669,-0.3677,-0.3732,-0.3693,-0.3692,-0.3705,-0.3701,-0.3713,-0.3713,-0.3707,-0.375,-0.3756,-0.3786,-0.3732,-0.3859,-0.3863,-0.3866,-0.3909,-0.3917,-0.3924,0,0,0,0,0,-0.3629,-0.3672,-0.3662,-0.3669,-0.3702,-0.3733,-0.3738,-0.3729,-0.3707,-0.3728,-0.373,-0.3713,-0.3778,-0.3754,-0.3761,-0.3792,-0.3857,-0.3862,-0.3866,-0.3905,-0.3915,-0.3924,0,0,0,0,0,0,-0.3668,-0.3673,-0.3662,-0.3709,-0.3721,-0.3728,-0.3754,-0.374,-0.3759,-0.3754,-0.3743,-0.3746,-0.379,-0.3794,-0.3768,-0.3845,-0.3814,-0.382,-0.3841,-0.3851,-0.3858,-0.3858,-0.3734,0,0,0,0,0,-0.3682,-0.3706,-0.371,-0.3751,-0.3758,-0.3755,-0.3768,-0.3761,-0.3773,-0.3778,-0.3782,-0.3795,-0.3819,-0.3835,-0.3856,-0.3908,-0.3911,-0.3933,-0.3941,-0.3947,-0.3953,-0.3983,-0.3993,-0.3883,-0.3883,-0.3883,0,0,-0.3711,-0.3717,-0.3734,-0.3759,-0.3768,-0.3794,-0.3759,-0.3789,-0.3809,-0.3782,-0.3822,-0.3825,-0.3839,-0.3886,-0.3906,-0.3891,-0.3984,-0.3953,-0.3958,-0.3961,-0.3988,-0.3999,-0.4008,-0.3886,-0.3886,-0.3885,0,0,-0.3779,-0.3785,-0.3821,-0.383,-0.3843,-0.384,-0.3849,-0.3858,-0.3859,-0.3898,-0.3879,-0.3902,-0.3943,-0.3954,-0.3964,-0.4036,-0.4021,-0.4043,-0.4084,-0.4113,-0.4121,-0.4129,-0.4157,-0.4166,-0.4048,-0.4048,-0.4049,0,-0.3815,-0.3853,-0.3842,-0.3873,-0.3885,-0.3861,-0.3898,-0.3907,-0.3927,-0.3937,-0.3918,-0.3969,-0.3976,-0.4026,-0.4043,-0.4052,-0.4063,-0.4043,-0.4121,-0.4129,-0.4136,-0.4162,-0.4172,-0.4051,-0.4051,-0.4051,-0.405,0,-0.3897,-0.3924,-0.3952,-0.3971,-0.3986,-0.402,-0.4014,-0.4031,-0.4022,-0.4021,-0.4061,-0.4069,-0.4092,-0.4103,-0.4094,-0.4152,-0.4142,-0.4122,-0.4091,-0.4149,-0.4174,-0.4183,-0.4055,-0.4054,-0.4053,-0.4053,0,0,-0.3993,-0.4004,-0.4015,-0.4024,-0.4035,-0.4057,-0.4089,-0.4112,-0.4127,-0.4141,-0.4169,-0.4203,-0.4185,-0.4198,-0.419,-0.4214,-0.4273,-0.4192,-0.4192,-0.4209,-0.4339,-0.4356,-0.4368,-0.4262,-0.4264,-0.4265,-0.4339,0,-0.4062,-0.4119,-0.4109,-0.4165,-0.4191,-0.4168,-0.4196,-0.4207,-0.4207,-0.423,-0.4229,-0.4255,-0.4228,-0.4236,-0.4259,-0.4261,-0.4299,-0.4255,-0.429,-0.4291,-0.429,-0.438,-0.4398,-0.4467,-0.4348,-0.435,-0.4351,0,-0.4152,-0.4169,-0.4227,-0.4235,-0.4246,-0.4272,-0.4292,-0.4313,-0.4325,-0.4323,-0.4337,-0.4324,-0.4357,-0.4323,-0.437,-0.434,-0.4353,-0.4356,-0.4359,-0.4364,-0.4327,-0.439,-0.4489,-0.45,-0.4365,-0.4364,-0.4363,0,-0.4219,-0.4256,-0.4296,-0.4303,-0.4314,-0.4333,-0.4338,-0.4348,-0.4362,-0.4379,-0.4389,-0.441,-0.4422,-0.4438,-0.4432,-0.4407,-0.4481,-0.4446,-0.4482,-0.4482,-0.4501,-0.45,-0.4606,-0.4505,-0.4505,-0.4505,-0.4504,0,-0.4299,-0.4336,-0.4326,-0.4351,-0.4392,-0.438,-0.4421,-0.4423,-0.4432,-0.4458,-0.4438,-0.4462,-0.4451,-0.4475,-0.447,-0.451,-0.4515,-0.4516,-0.4515,-0.4519,-0.452,-0.453,-0.4526,-0.4507,-0.4507,-0.4506,-0.4506,0,-0.4382,-0.4376,-0.4419,-0.4424,-0.4427,-0.4457,-0.4462,-0.4486,-0.4483,-0.4516,-0.4523,-0.452,-0.4547,-0.4542,-0.4571,-0.4568,-0.462,-0.4611,-0.4616,-0.4615,-0.4652,-0.465,-0.477,-0.4786,-0.4673,-0.4674,-0.4675,0,-0.4435,-0.4463,-0.4472,-0.4487,-0.4494,-0.4519,-0.4533,-0.4522,-0.4538,-0.4553,-0.4575,-0.46,-0.462,-0.4665,-0.4666,-0.4688,-0.4682,-0.4722,-0.4685,-0.4689,-0.4685,-0.4685,-0.4689,-0.4731,-0.4732,-0.4733,-0.4734,0,-0.4531,-0.4527,-0.4548,-0.4568,-0.4586,-0.4602,-0.4615,-0.4629,-0.4619,-0.4638,-0.4665,-0.468,-0.471,-0.4736,-0.4757,-0.4763,-0.4748,-0.4745,-0.4755,-0.4762,-0.4764,-0.4766,-0.4639,-0.4743,-0.4742,-0.4741,-0.4741,-0.4741,-0.4602,-0.4627,-0.4637,-0.4661,-0.467,-0.4684,-0.4706,-0.4707,-0.4729,-0.4753,-0.4744,-0.4776,-0.4787,-0.4814,-0.4822,-0.4847,-0.4832,-0.4846,-0.485,-0.4854,-0.486,-0.4758,-0.485,-0.485,-0.485,-0.4849,-0.4849,0,-0.4699,-0.4704,-0.4727,-0.4747,-0.4766,-0.4748,-0.4762,-0.478,-0.4808,-0.482,-0.4839,-0.4871,-0.4896,-0.4898,-0.4922,-0.4941,-0.4935,-0.4948,-0.4948,-0.495,-0.4871,-0.4861,-0.4953,-0.4953,-0.4953,-0.4953,-0.4953,-0.4953,-0.4752,-0.4793,-0.479,-0.4835,-0.484,-0.487,-0.488,-0.4893,-0.4902,-0.4938,-0.4959,-0.496,-0.4968,-0.4992,-0.5014,-0.5014,-0.5025,-0.5041,-0.5039,-0.4966,-0.4956,-0.4946,-0.4937,-0.5043,-0.5043,-0.5117,-0.5117,-0.5118]}]]